EW7678 Weather Reports


Display with metric or nautical units.
time (UTC)temp
F
wind
direction
speed
MPH
gust
MPH
rain 1hr
in
rain 24hr
in
rain mn
in
humidity
%
barometer
mb
20260504020007 77 276 0.0 1.0 0.00 0.00 0.00 30 1009.0
20260504014503 79 276 0.0 2.0 0.00 0.00 0.00 24 1009.2
20260504013001 81 281 0.0 2.0 0.00 0.00 0.00 24 1009.4
20260504011606 81 354 0.0 3.0 0.00 0.00 0.00 24 1009.3
20260504010100 82 261 0.0 8.0 0.00 0.00 0.00 24 1009.3
20260504004555 83 110 1.0 3.0 0.00 0.00 0.00 25 1009.3
20260504003100 83 125 1.0 5.0 0.00 0.00 0.00 23 1009.5
20260504001601 83 326 2.0 6.0 0.00 0.00 0.00 22 1009.6
20260504000052 84 291 1.0 5.0 0.00 0.00 0.00 21 1009.6
20260503234551 84 171 0.0 6.0 0.00 0.00 0.00 23 1009.8
20260503233047 83 290 0.0 3.0 0.00 0.00 0.00 24 1010.1
20260503231546 84 245 1.0 5.0 0.00 0.00 0.00 23 1010.2
20260503230048 84 215 2.0 4.0 0.00 0.00 0.00 24 1010.4
20260503224542 84 126 1.0 3.0 0.00 0.00 0.00 24 1010.6
20260503223039 84 292 1.0 7.0 0.00 0.00 0.00 23 1010.8
20260503221536 84 225 1.0 6.0 0.00 0.00 0.00 24 1011.0
20260503220044 83 152 0.0 6.0 0.00 0.00 0.00 25 1011.2
20260503214530 83 127 1.0 4.0 0.00 0.00 0.00 25 1011.4
20260503213027 83 128 0.0 7.0 0.00 0.00 0.00 26 1011.6
20260503211525 83 265 1.0 6.0 0.00 0.00 0.00 24 1011.8
20260503210020 81 129 1.0 4.0 0.00 0.00 0.00 27 1012.1
20260503204518 80 109 0.0 5.0 0.00 0.00 0.00 29 1012.3
20260503203026 79 97 1.0 4.0 0.00 0.00 0.00 29 1012.7
20260503201518 80 294 0.0 3.0 0.00 0.00 0.00 29 1012.8
20260503200008 78 115 1.0 3.0 0.00 0.00 0.00 30 1013.1
20260503194506 77 109 1.0 3.0 0.00 0.00 0.00 30 1013.4
20260503193112 75 103 1.0 3.0 0.00 0.00 0.00 31 1013.7
20260503191605 74 91 1.0 4.0 0.00 0.00 0.00 31 1013.9
20260503190056 73 97 1.0 3.0 0.00 0.00 0.00 32 1014.2
20260503184604 72 66 1.0 5.0 0.00 0.00 0.00 33 1014.4
20260503183057 72 54 0.0 3.0 0.00 0.00 0.00 34 1014.6
20260503181544 70 124 1.0 6.0 0.00 0.00 0.00 36 1014.8
20260503180043 69 314 0.0 2.0 0.00 0.00 0.00 35 1015.1
20260503174537 68 145 0.0 2.0 0.00 0.00 0.00 38 1015.4
20260503173033 67 332 1.0 3.0 0.00 0.00 0.00 38 1015.7
20260503171530 66 319 0.0 3.0 0.00 0.00 0.00 40 1015.8
20260503081512 45 296 0.0 0.0 0.00 0.00 0.00 79 1015.9
20260503071507 46 296 0.0 0.0 0.00 0.00 0.00 75 1015.6
20260503070107 46 296 0.0 0.0 0.00 0.00 0.00 75 1015.7
20260503060103 48 296 0.0 0.0 0.00 0.00 0.00 72 1015.6
20260503054603 49 296 0.0 0.0 0.00 0.00 0.00 69 1015.5
20260503053056 49 296 0.0 0.0 0.00 0.00 0.00 70 1015.4
20260503051558 50 296 0.0 0.0 0.00 0.00 0.00 68 1015.3
20260503050055 51 296 0.0 0.0 0.00 0.00 0.00 66 1015.1
20260503044604 53 296 0.0 0.0 0.00 0.00 0.00 65 1014.9
20260503043059 54 296 0.0 0.0 0.00 0.00 0.00 63 1014.8
20260503041554 56 296 0.0 0.0 0.00 0.00 0.00 60 1014.6
20260503040053 57 296 0.0 0.0 0.00 0.00 0.00 57 1014.5
20260503034554 59 296 0.0 0.0 0.00 0.00 0.00 55 1014.2
20260503033112 61 296 0.0 0.0 0.00 0.00 0.00 51 1013.9
20260503031559 63 296 0.0 0.0 0.00 0.00 0.00 48 1013.8
20260503030104 65 296 0.0 0.0 0.00 0.00 0.00 42 1013.8
20260503024610 69 296 0.0 1.0 0.00 0.00 0.00 40 1013.7
20260503023049 70 308 0.0 0.0 0.00 0.00 0.00 35 1013.6
20260503021553 72 307 0.0 1.0 0.00 0.00 0.00 32 1013.7